Change the Weather History Date:

Thursday, August 9, 2012

  Actual Average Record
Temperature  
Mean Temperature 68 °F 70 °F  
Max Temperature 81 °F 80 °F 95 °F (1958)
Min Temperature 54 °F 60 °F 46 °F (1972)
Degree Days  
Heating Degree Days 0 0  
Month to date heating degree days 0 0  
Since 1 June heating degree days 18 50  
Since 1 July heating degree days 0 9  
Cooling Degree Days 3 6  
Month to date cooling degree days 71 54  
Year to date cooling degree days 729 446  
Since 1 June cooling degree days 640 410  
Growing Degree Days 20 (Base 50)    
Moisture  
Dew Point 58 °F    
Average Humidity 68    
Maximum Humidity 97    
Minimum Humidity 39    
Precipitation  
Precipitation 0.00 in 0.12 in 1.00 in (1957)
Month to date precipitation T 1.33  
Year to date precipitation 15.47  
Sea Level Pressure  
Sea Level Pressure 30.02 in    
Wind  
Wind Speed 11 mph (North)    
Max Wind Speed 24 mph    
Max Gust Speed 31 mph    
Visibility 9 miles    
Events      
T = Trace of Precipitation, MM = Missing Value Source: NWS Daily Summary

Daily Weather History Graph

Daily Weather History Graph

Search for Another Location

Airport or City:

Trip Planner

Search our weather history database for the weather conditions in past years. The results will help you decide how hot, cold, wet, or windy it might be!

Date:

Astronomy

Aug. 09, 2012 Rise Set
Actual Time 6:18 AM CDT 8:30 PM CDT
Civil Twilight 5:46 AM CDT 9:01 PM CDT
Nautical Twilight 5:07 AM CDT 9:40 PM CDT
Astronomical Twilight 4:24 AM CDT 10:22 PM CDT
Moon No Moon Rise 2:16 PM CDT (8/9)
Length of Visible Light 15h 14m
Length of Day
14h 12m
Waning Gibbous, 51% of the Moon is Illuminated
Aug 9
Waning Gibbous
Aug 9
Last Quarter
Aug 17
New
Aug 24
First Quarter
Aug 31
Full

Hourly Weather History & Observations

Time (CDT) Temp. Heat Index Dew Point Humidity Pressure Visibility Wind Dir Wind Speed Gust Speed Precip Events Conditions
1:52 AM 62.1 °F - 60.1 °F 93% 29.98 in 10.0 mi North 9.2 mph - N/A   Clear
2:20 AM 62.6 °F - 60.8 °F 94% 30.01 in 10.0 mi North 9.2 mph - N/A   Mostly Cloudy
2:34 AM 62.6 °F - 60.8 °F 94% 30.01 in 10.0 mi North 8.1 mph - N/A   Overcast
2:52 AM 63.0 °F - 60.1 °F 90% 30.00 in 10.0 mi North 8.1 mph - N/A   Overcast
3:52 AM 63.0 °F - 60.1 °F 90% 30.00 in 9.0 mi North 10.4 mph - N/A   Overcast
4:22 AM 62.6 °F - 60.8 °F 94% 30.02 in 9.0 mi North 8.1 mph - N/A   Overcast
4:52 AM 63.0 °F - 61.0 °F 93% 30.00 in 8.0 mi North 10.4 mph - N/A   Overcast
5:30 AM 62.6 °F - 60.8 °F 94% 30.02 in 10.0 mi North 9.2 mph - N/A   Mostly Cloudy
5:52 AM 61.0 °F - 59.0 °F 93% 30.01 in 7.0 mi NNW 8.1 mph - N/A   Mostly Cloudy
6:06 AM 60.8 °F - 59.0 °F 94% 30.03 in 1.8 mi North 9.2 mph - N/A   Overcast
6:15 AM 60.8 °F - 59.0 °F 94% 30.03 in 3.0 mi North 9.2 mph - N/A   Overcast
6:52 AM 60.1 °F - 57.9 °F 93% 30.02 in 7.0 mi NNW 8.1 mph - N/A   Overcast
7:11 AM 60.8 °F - 57.2 °F 88% 30.04 in 8.0 mi NNW 8.1 mph - N/A   Scattered Clouds
7:52 AM 63.0 °F - 59.0 °F 87% 30.03 in 10.0 mi North 6.9 mph - N/A   Clear
8:52 AM 66.9 °F - 60.1 °F 79% 30.02 in 10.0 mi North 10.4 mph - N/A   Clear
9:52 AM 70.0 °F - 61.0 °F 73% 30.03 in 10.0 mi NNW 9.2 mph - N/A   Clear
10:52 AM 75.0 °F - 62.1 °F 64% 30.02 in 10.0 mi NNW 9.2 mph - N/A   Clear
11:52 AM 78.1 °F - 60.1 °F 54% 30.01 in 10.0 mi North 11.5 mph - N/A   Clear
12:52 PM 79.0 °F - 59.0 °F 50% 30.00 in 10.0 mi NNW 12.7 mph 19.6 mph N/A   Scattered Clouds
1:52 PM 79.0 °F - 57.9 °F 48% 30.01 in 10.0 mi North 13.8 mph 23.0 mph N/A   Scattered Clouds
2:52 PM 80.1 °F 80.0 °F 54.0 °F 40% 30.00 in 10.0 mi NNW 17.3 mph 27.6 mph N/A   Scattered Clouds
3:52 PM 80.1 °F 80.0 °F 54.0 °F 40% 29.99 in 10.0 mi NW 15.0 mph 24.2 mph N/A   Clear
4:52 PM 79.0 °F - 54.0 °F 42% 29.99 in 10.0 mi NNW 20.7 mph 26.5 mph N/A   Clear
5:52 PM 77.0 °F - 51.1 °F 40% 30.00 in 10.0 mi North 21.9 mph 28.8 mph N/A   Partly Cloudy
6:52 PM 75.0 °F - 52.0 °F 44% 30.01 in 10.0 mi North 13.8 mph - N/A   Clear
7:52 PM 70.0 °F - 53.1 °F 55% 30.03 in 10.0 mi North 11.5 mph - N/A   Partly Cloudy
8:52 PM 64.9 °F - 55.0 °F 70% 30.05 in 10.0 mi North 8.1 mph - N/A   Clear
9:52 PM 61.0 °F - 54.0 °F 78% 30.06 in 10.0 mi NNW 4.6 mph - N/A   Clear
11:52 PM 55.9 °F - 52.0 °F 87% 30.08 in 10.0 mi North 4.6 mph - N/A   Clear